This demonstration page uses our WeatherBlox Daily Observations layout. Learn more.

Left ArrowRight Arrow

34.02893, -84.19858

Hourly Observations for February 13, 2020

Temp ( °F °C ) Dew Point ( °F °C ) Humidity (%) Winds ( mph kmh ) Pressure ( in mb ) Visibility ( mi km ) Precip ( " mm )
12:53 am 00:53 Cloudy with Light Rain 67 19.4 62 16.7 84 84 S 15 24 29.82 1010 10 16 0.00 0.00
1:53 am 01:53 Cloudy 66 18.9 63 17.2 90 90 S 13 20 29.80 1009 10 16 0.01 0.25
2:53 am 02:53 Cloudy with Light Rain 67 19.4 64 17.8 91 91 S 14 22 29.77 1008 10 16 0.00 0.00
3:53 am 03:53 Cloudy 68 20 64 17.8 87 87 SSW 14 22 29.75 1008 10 16 0.00 0.00
4:53 am 04:53 Mostly Cloudy 68 20 64 17.8 87 87 SSW 14 22 29.72 1007 10 16 0.00 0.00
5:53 am 05:53 Cloudy 69 20.6 64 17.8 84 84 SSW 16 26 29.73 1007 10 16 0.00 0.00
6:40 am 06:40 Mostly Cloudy with Heavy Rain 65 18.3 63 17.2 93 93 WNW 18 30 29.78 1008 3 4 0.11 2.79
6:43 am 06:43 Cloudy with Heavy Rain 62 16.7 60 15.6 93 93 WNW 17 28 29.79 1009 2 3 0.15 3.81
6:51 am 06:51 Cloudy with Heavy Rain 61 16 61 16 100 100 NW 8 13 29.79 1009 2 2 0.29 7.37
6:53 am 06:53 Cloudy with Heavy Rain 61 16.1 60 15.6 97 97 W 12 19 29.81 1009 1 2 0.32 8.13
6:58 am 06:58 Cloudy with Heavy Rain 61 16.1 60 15.6 97 97 VRB 5 7 29.80 1009 1 1 0.19 4.83
7:05 am 07:05 Cloudy with Heavy Rain 61 16.1 60 15.6 97 97 WNW 6 9 29.81 1009 1 2 0.24 6.10
7:18 am 07:18 Cloudy with Rain 60 15.6 59 15 96 96 NNW 13 20 29.81 1009 3 4 0.33 8.38
7:26 am 07:26 Cloudy with Light Rain 60 15.6 58 14.4 93 93 NW 12 19 29.82 1010 5 8 0.34 8.64
7:41 am 07:41 Cloudy with Heavy Rain 59 15 57 13.9 93 93 NW 12 19 29.84 1011 3 5 0.40 10.16
7:45 am 07:45 Cloudy with Heavy Rain 58 14.4 57 13.9 97 97 NW 12 19 29.85 1011 3 4 0.43 10.92
7:53 am 07:53 Cloudy with Heavy Rain 58 14.4 57 13.9 97 97 WNW 8 13 29.85 1011 2 3 0.52 13.21
8:02 am 08:02 Cloudy with Heavy Rain 58 14.4 57 13.9 97 97 NNW 8 13 29.84 1011 2 3 0.09 2.29
8:53 am 08:53 Cloudy with Rain 56 13.3 54 12.2 93 93 WSW 6 9 29.86 1011 2 3 0.24 6.10
8:56 am 08:56 Cloudy with Rain 56 13.3 54 12.2 93 93 SW 6 9 29.88 1012 3 5 0.01 0.25
9:53 am 09:53 Cloudy with Light Rain 56 13.3 54 12.2 93 93 WSW 3 6 29.86 1011 10 16 0.03 0.76
10:53 am 10:53 Cloudy 58 14.4 55 12.8 90 90 WSW 12 19 29.90 1012 10 16 0.02 0.51
11:31 am 11:31 Cloudy 59 15 55 12.8 87 87 W 9 15 29.90 1013 10 16 0.00 0.00
11:53 am 11:53 Cloudy with Light Rain 59 15 56 13.3 90 90 W 12 19 29.89 1012 10 16 0.00 0.00
12:53 pm 12:53 Mostly Cloudy 60 15.6 54 12.2 80 80 WNW 10 17 29.88 1012 10 16 0.00 0.00
1:53 pm 13:53 Cloudy 58 14.4 51 10.6 78 78 WNW 13 20 29.89 1012 10 16 0.00 0.00
2:53 pm 14:53 Cloudy 58 14.4 50 10 75 75 W 13 20 29.91 1013 10 16 0.00 0.00
3:16 pm 15:16 Cloudy 57 13.9 49 9.4 74 74 NW 14 22 29.93 1013 10 16 0.00 0.00
3:23 pm 15:23 Cloudy 56 13.3 49 9.4 77 77 W 21 33 29.95 1014 10 16 0.00 0.00
3:53 pm 15:53 Cloudy 53 11.7 47 8.3 80 80 NW 17 28 29.95 1014 10 16 0.00 0.00
4:48 pm 16:48 Cloudy 52 11 45 7 77 77 NW 16 26 30.01 1016 10 16 0.00 0.00
4:53 pm 16:53 Cloudy 52 11.1 43 6.1 72 72 NW 13 20 29.99 1016 10 16 0.00 0.00
5:53 pm 17:53 Partly Cloudy 49 9.4 40 4.4 71 71 NW 14 22 30.03 1017 10 16 0.00 0.00
6:17 pm 18:17 Mostly Cloudy 48 8.9 39 3.9 71 71 NW 14 22 30.07 1018 10 16 0.00 0.00
6:53 pm 18:53 Partly Cloudy 47 8.3 37 2.8 69 69 NW 15 24 30.07 1018 10 16 0.00 0.00
7:08 pm 19:08 Mostly Cloudy 46 7.8 37 2.8 71 71 NW 15 24 30.10 1019 10 16 0.00 0.00
7:15 pm 19:15 Partly Cloudy 46 7.8 37 2.8 71 71 NW 15 24 30.11 1020 10 16 0.00 0.00
7:53 pm 19:53 Partly Cloudy 44 6.7 35 1.7 71 71 NNW 17 28 30.12 1020 10 16 0.00 0.00
8:53 pm 20:53 Clear 43 6.1 34 1.1 71 71 NW 14 22 30.14 1021 10 16 0.00 0.00
9:53 pm 21:53 Clear 42 5.6 33 0.6 71 71 NNW 15 24 30.17 1022 10 16 0.00 0.00
10:53 pm 22:53 Clear 41 5 33 0.6 73 73 NNW 12 19 30.20 1023 10 16 0.00 0.00
11:53 pm 23:53 Clear 39 3.9 32 0 76 76 NNW 13 20 30.20 1023 10 16 0.00 0.00

Powered by AerisWeather